����,���ϕ���(m/s),���ϕ���,�ő�u�ԕ���(m/s),�ő啗��������,�C��(��),���x(%),10���Ԉړ��ώZ�J��(mm),1���Ԉړ��ώZ�J��(mm),���J��(mm),�݌v�J��(mm),����(���ώZ)(MJ/m2),����(���ώZ)(min),���n�C��(hPa),�C�ʋC��(hPa)
2022-12-12T00:00:00+09:00,2.7,�k�k��,5.8,�k�k��,6.3,76.9,0,0,4,4,5.17,89,1007.3,1021.7
2022-12-12T00:01:00+09:00,2.7,�k�k��,5.8,�k�k��,6.3,77.6,0,0,0,4,0,0,1007.4,1021.8
2022-12-12T00:02:00+09:00,2.8,�k�k��,5.8,�k�k��,6.4,78.2,0,0,0,4,0,0,1007.4,1021.8
2022-12-12T00:03:00+09:00,2.8,�k�k��,5.8,�k�k��,6.4,78.2,0,0,0,4,0,0,1007.4,1021.8
2022-12-12T00:04:00+09:00,2.8,�k�k��,5.8,�k�k��,6.4,78.1,0,0,0,4,0,0,1007.4,1021.8
2022-12-12T00:05:00+09:00,2.8,�k�k��,5.8,�k�k��,6.4,78,0,0,0,4,0,0,1007.5,1021.9
2022-12-12T00:06:00+09:00,2.7,�k�k��,5.8,�k�k��,6.3,77.7,0,0,0,4,0,0,1007.5,1021.9
2022-12-12T00:07:00+09:00,2.4,�k�k��,5.8,�k�k��,6.2,77.6,0,0,0,4,0,0,1007.4,1021.8
2022-12-12T00:08:00+09:00,2.4,�k�k��,6.9,�k,6.3,78,0,0,0,4,0,0,1007.5,1021.9
2022-12-12T00:09:00+09:00,2.5,�k�k��,6.9,�k,6.3,78,0,0,0,4,0,0,1007.5,1021.9
2022-12-12T00:10:00+09:00,2.4,�k,6.9,�k,6.4,77.9,0,0,0,4,0,0,1007.5,1021.9
2022-12-12T00:11:00+09:00,2.4,�k,7.2,�k,6.4,77.6,0,0,0,4,0,0,1007.5,1021.9
2022-12-12T00:12:00+09:00,2.3,�k,7.2,�k,6.5,77.3,0,0,0,4,0,0,1007.5,1021.8
2022-12-12T00:13:00+09:00,2.4,�k,7.2,�k,6.5,77,0,0,0,4,0,0,1007.5,1021.8
2022-12-12T00:14:00+09:00,2.5,�k,7.2,�k,6.5,76.7,0,0,0,4,0,0,1007.5,1021.8
2022-12-12T00:15:00+09:00,2.5,�k,7.2,�k,6.5,76.2,0,0,0,4,0,0,1007.5,1021.8
2022-12-12T00:16:00+09:00,2.4,�k,7.2,�k,6.4,75.8,0,0,0,4,0,0,1007.5,1021.9
2022-12-12T00:17:00+09:00,2.4,�k,7.2,�k,6.3,75.5,0,0,0,4,0,0,1007.5,1021.9
2022-12-12T00:18:00+09:00,2.4,�k,7.2,�k,6.1,75.6,0,0,0,4,0,0,1007.5,1021.9
2022-12-12T00:19:00+09:00,2.3,�k,7.2,�k,6.2,76.3,0,0,0,4,0,0,1007.5,1021.9
2022-12-12T00:20:00+09:00,2.4,�k,7.2,�k,6.3,77.6,0,0,0,4,0,0,1007.5,1021.9
2022-12-12T00:21:00+09:00,2.2,�k,6.4,�k��,6.3,77.4,0,0,0,4,0,0,1007.5,1021.9
2022-12-12T00:22:00+09:00,2,�k,6.4,�k��,6.3,77.3,0,0,0,4,0,0,1007.5,1021.9
2022-12-12T00:23:00+09:00,1.9,�k,5.1,�k,6.2,76.8,0,0,0,4,0,0,1007.5,1021.9
2022-12-12T00:24:00+09:00,2,�k,5.2,�k�k��,6.3,77.2,0,0,0,4,0,0,1007.5,1021.9
2022-12-12T00:25:00+09:00,2.2,�k,7.1,�k,6.3,77.5,0,0,0,4,0,0,1007.6,1022
2022-12-12T00:26:00+09:00,2.3,�k,7.1,�k,6.3,77.5,0,0,0,4,0,0,1007.6,1022
2022-12-12T00:27:00+09:00,2.3,�k,7.1,�k,6.2,77.3,0,0,0,4,0,0,1007.5,1021.9
2022-12-12T00:28:00+09:00,2.3,�k,7.1,�k,6.3,77.2,0,0,0,4,0,0,1007.5,1021.9
2022-12-12T00:29:00+09:00,2.3,�k,7.1,�k,6.3,77.2,0,0,0,4,0,0,1007.5,1021.9
2022-12-12T00:30:00+09:00,2.2,�k,7.1,�k,6.4,77.3,0,0,0,4,0,0,1007.5,1021.9
2022-12-12T00:31:00+09:00,2.3,�k,7.1,�k,6.5,76.7,0,0,0,4,0,0,1007.5,1021.8
2022-12-12T00:32:00+09:00,2.4,�k,7.1,�k,6.6,76.3,0,0,0,4,0,0,1007.6,1021.9
2022-12-12T00:33:00+09:00,2.3,�k,7.1,�k,6.6,75.7,0,0,0,4,0,0,1007.6,1021.9
2022-12-12T00:34:00+09:00,2.2,�k,7.1,�k,6.6,75.1,0,0,0,4,0,0,1007.6,1021.9
2022-12-12T00:35:00+09:00,2.1,�k,5.6,�k��,6.4,74.6,0,0,0,4,0,0,1007.5,1021.9
2022-12-12T00:36:00+09:00,2.1,�k,5.6,�k��,6.3,74.8,0,0,0,4,0,0,1007.6,1022
2022-12-12T00:37:00+09:00,2.4,�k,5.6,�k��,6.3,75.4,0,0,0,4,0,0,1007.6,1022
2022-12-12T00:38:00+09:00,2.4,�k,6.2,�k,6.2,75.6,0,0,0,4,0,0,1007.6,1022
2022-12-12T00:39:00+09:00,2.5,�k,7.2,�k�k��,6.3,76.3,0,0,0,4,0,0,1007.6,1022
2022-12-12T00:40:00+09:00,2.6,�k,7.2,�k�k��,6.3,76.4,0,0,0,4,0,0,1007.6,1022
2022-12-12T00:41:00+09:00,2.6,�k,7.2,�k�k��,6.2,76.3,0,0,0,4,0,0,1007.6,1022
2022-12-12T00:42:00+09:00,2.6,�k,7.2,�k�k��,6.1,76.2,0,0,0,4,0,0,1007.6,1022
2022-12-12T00:43:00+09:00,2.7,�k,7.2,�k�k��,6.2,76.9,0,0,0,4,0,0,1007.6,1022
2022-12-12T00:44:00+09:00,2.7,�k,7.2,�k�k��,6.3,77.3,0,0,0,4,0,0,1007.6,1022
2022-12-12T00:45:00+09:00,2.6,�k,7.2,�k�k��,6.2,77.2,0,0,0,4,0,0,1007.6,1022
2022-12-12T00:46:00+09:00,2.7,�k,7.2,�k�k��,6.2,77.1,0,0,0,4,0,0,1007.6,1022
2022-12-12T00:47:00+09:00,2.7,�k�k��,7.2,�k�k��,6.2,77.2,0,0,0,4,0,0,1007.6,1022
2022-12-12T00:48:00+09:00,2.7,�k�k��,7.2,�k�k��,6.2,77.5,0,0,0,4,0,0,1007.7,1022.1
2022-12-12T00:49:00+09:00,2.7,�k�k��,6,�k��,6,77.2,0,0,0,4,0,0,1007.7,1022.1
2022-12-12T00:50:00+09:00,2.7,�k�k��,6,�k��,6,77.6,0,0,0,4,0,0,1007.6,1022
2022-12-12T00:51:00+09:00,2.8,�k�k��,6,�k��,6.1,78.2,0,0,0,4,0,0,1007.6,1022
2022-12-12T00:52:00+09:00,2.9,�k�k��,6,�k��,6,78.3,0,0,0,4,0,0,1007.6,1022
2022-12-12T00:53:00+09:00,3,�k�k��,6,�k��,6,78.3,0,0,0,4,0,0,1007.7,1022.1
2022-12-12T00:54:00+09:00,3,�k�k��,6,�k��,6,78.5,0,0,0,4,0,0,1007.7,1022.1
2022-12-12T00:55:00+09:00,3.1,�k�k��,6,�k��,5.9,78.4,0,0,0,4,0,0,1007.7,1022.1
2022-12-12T00:56:00+09:00,3.1,�k�k��,6,�k��,6,78.7,0,0,0,4,0,0,1007.7,1022.1
2022-12-12T00:57:00+09:00,3,�k�k��,4.9,�k�k��,6,78.8,0,0,0,4,0,0,1007.6,1022
2022-12-12T00:58:00+09:00,2.9,�k�k��,4.9,�k�k��,5.8,78.6,0,0,0,4,0,0,1007.6,1022
2022-12-12T00:59:00+09:00,2.9,�k�k��,4.9,�k�k��,5.8,78.5,0,0,0,4,0,0,1007.7,1022.1
2022-12-12T01:00:00+09:00,2.9,�k�k��,4.9,�k�k��,5.8,78.6,0,0,0,4,0,0,1007.7,1022.1
2022-12-12T01:01:00+09:00,2.8,�k�k��,4.9,�k�k��,5.8,79,0,0,0,4,0,0,1007.6,1022
2022-12-12T01:02:00+09:00,2.7,�k�k��,4.9,�k�k��,6,79.7,0,0,0,4,0,0,1007.6,1022
2022-12-12T01:03:00+09:00,2.7,�k�k��,4.9,�k�k��,5.9,79.4,0,0,0,4,0,0,1007.6,1022
2022-12-12T01:04:00+09:00,2.7,�k�k��,4.9,�k�k��,5.9,79,0,0,0,4,0,0,1007.7,1022.1
2022-12-12T01:05:00+09:00,2.7,�k�k��,4.9,�k�k��,5.9,79,0,0,0,4,0,0,1007.6,1022
2022-12-12T01:06:00+09:00,2.7,�k�k��,5.1,�k�k��,6,79,0,0,0,4,0,0,1007.7,1022.1
2022-12-12T01:07:00+09:00,2.8,�k�k��,5.1,�k�k��,6,78.6,0,0,0,4,0,0,1007.7,1022.1
2022-12-12T01:08:00+09:00,2.8,�k�k��,5.1,�k�k��,6.2,78.8,0,0,0,4,0,0,1007.6,1022
2022-12-12T01:09:00+09:00,2.9,�k�k��,6.1,�k�k��,6,78.7,0,0,0,4,0,0,1007.6,1022
2022-12-12T01:10:00+09:00,3,�k�k��,6.1,�k�k��,6,78.3,0,0,0,4,0,0,1007.7,1022.1
2022-12-12T01:11:00+09:00,2.9,�k�k��,6.1,�k�k��,6.1,78.4,0,0,0,4,0,0,1007.7,1022.1
2022-12-12T01:12:00+09:00,2.8,�k�k��,6.1,�k�k��,5.9,77.9,0,0,0,4,0,0,1007.6,1022
2022-12-12T01:13:00+09:00,2.9,�k�k��,6.3,�k,6,77.6,0,0,0,4,0,0,1007.6,1022
2022-12-12T01:14:00+09:00,3,�k�k��,6.3,�k,5.9,77.7,0,0,0,4,0,0,1007.6,1022
2022-12-12T01:15:00+09:00,2.9,�k�k��,6.3,�k,6.1,78.1,0,0,0,4,0,0,1007.6,1022
2022-12-12T01:16:00+09:00,2.8,�k�k��,6.7,�k,6.1,78,0,0,0,4,0,0,1007.6,1022
2022-12-12T01:17:00+09:00,2.9,�k�k��,6.7,�k,6.1,77.4,0,0,0,4,0,0,1007.7,1022.1
2022-12-12T01:18:00+09:00,2.9,�k,6.7,�k,6.1,77.2,0,0,0,4,0,0,1007.7,1022.1
2022-12-12T01:19:00+09:00,2.7,�k,6.7,�k,6.2,77.1,0,0,0,4,0,0,1007.7,1022.1
2022-12-12T01:20:00+09:00,2.6,�k,6.7,�k,6.2,77,0,0,0,4,0,0,1007.8,1022.2
2022-12-12T01:21:00+09:00,2.7,�k,6.7,�k,6.3,76.7,0,0,0,4,0,0,1007.7,1022.1
2022-12-12T01:22:00+09:00,2.8,�k,7.2,�k,6.3,76.3,0,0,0,4,0,0,1007.7,1022.1
2022-12-12T01:23:00+09:00,2.7,�k,7.2,�k,6.4,75.9,0,0,0,4,0,0,1007.8,1022.2
2022-12-12T01:24:00+09:00,2.7,�k,7.2,�k,6.5,75.6,0,0,0,4,0,0,1007.8,1022.2
2022-12-12T01:25:00+09:00,2.8,�k,7.2,�k,6.4,75.1,0,0,0,4,0,0,1007.8,1022.2
2022-12-12T01:26:00+09:00,2.8,�k,7.2,�k,6.5,74.5,0,0,0,4,0,0,1007.8,1022.2
2022-12-12T01:27:00+09:00,2.7,�k,7.2,�k,6.5,74.3,0,0,0,4,0,0,1007.8,1022.2
2022-12-12T01:28:00+09:00,2.9,�k,7.2,�k,6.4,73.9,0,0,0,4,0,0,1007.8,1022.2
2022-12-12T01:29:00+09:00,3,�k,7.2,�k,6.4,73.8,0,0,0,4,0,0,1007.9,1022.3
2022-12-12T01:30:00+09:00,3.1,�k,7.2,�k,6.3,73.5,0,0,0,4,0,0,1007.8,1022.2
2022-12-12T01:31:00+09:00,3.1,�k,7.2,�k,6.4,73.9,0,0,0,4,0,0,1007.9,1022.3
2022-12-12T01:32:00+09:00,2.9,�k,7,�k�k��,6.4,74.1,0,0,0,4,0,0,1007.8,1022.2
2022-12-12T01:33:00+09:00,3,�k,7,�k�k��,6.4,73.9,0,0,0,4,0,0,1007.9,1022.3
2022-12-12T01:34:00+09:00,3.1,�k,7,�k�k��,6.4,73.8,0,0,0,4,0,0,1007.9,1022.3
2022-12-12T01:35:00+09:00,3.2,�k,6.6,�k,6.4,74.1,0,0,0,4,0,0,1007.9,1022.3
2022-12-12T01:36:00+09:00,3.2,�k,6.6,�k,6.4,74.2,0,0,0,4,0,0,1007.9,1022.3
2022-12-12T01:37:00+09:00,3.1,�k,6.6,�k,6.3,74.4,0,0,0,4,0,0,1007.9,1022.3
2022-12-12T01:38:00+09:00,3.1,�k�k��,6.5,�k�k��,6.1,74.3,0,0,0,4,0,0,1007.8,1022.2
2022-12-12T01:39:00+09:00,3,�k�k��,6.5,�k�k��,6,74.5,0,0,0,4,0,0,1007.9,1022.3
2022-12-12T01:40:00+09:00,2.9,�k�k��,6.5,�k�k��,6,75.1,0,0,0,4,0,0,1007.9,1022.3
2022-12-12T01:41:00+09:00,2.7,�k�k��,6.5,�k�k��,6,75.4,0,0,0,4,0,0,1007.9,1022.3
2022-12-12T01:42:00+09:00,2.7,�k�k��,6.5,�k�k��,6,75.5,0,0,0,4,0,0,1007.9,1022.3
2022-12-12T01:43:00+09:00,2.7,�k�k��,6.9,�k�k��,6.1,75.9,0,0,0,4,0,0,1007.9,1022.3
2022-12-12T01:44:00+09:00,2.7,�k�k��,6.9,�k�k��,6.2,76.2,0,0,0,4,0,0,1007.9,1022.3
2022-12-12T01:45:00+09:00,2.7,�k�k��,6.9,�k�k��,6.4,76.1,0,0,0,4,0,0,1008,1022.4
2022-12-12T01:46:00+09:00,2.6,�k�k��,6.9,�k�k��,6.3,75,0,0,0,4,0,0,1008,1022.4
2022-12-12T01:47:00+09:00,2.7,�k�k��,6.9,�k�k��,6.3,74.6,0,0,0,4,0,0,1007.9,1022.3
2022-12-12T01:48:00+09:00,2.7,�k�k��,6.9,�k�k��,6.4,74.4,0,0,0,4,0,0,1007.9,1022.3
2022-12-12T01:49:00+09:00,2.8,�k�k��,6.9,�k�k��,6.3,73.9,0,0,0,4,0,0,1007.9,1022.3
2022-12-12T01:50:00+09:00,3,�k�k��,6.9,�k�k��,6.3,73.6,0,0,0,4,0,0,1007.9,1022.3
2022-12-12T01:51:00+09:00,3.1,�k�k��,6.9,�k�k��,6.3,73.7,0,0,0,4,0,0,1007.9,1022.3
2022-12-12T01:52:00+09:00,3.1,�k�k��,6.9,�k�k��,6,73.6,0,0,0,4,0,0,1007.9,1022.3
2022-12-12T01:53:00+09:00,2.9,�k�k��,6.9,�k�k��,6,73.8,0,0,0,4,0,0,1007.9,1022.3
2022-12-12T01:54:00+09:00,2.9,�k�k��,6.9,�k�k��,5.8,74.2,0,0,0,4,0,0,1007.8,1022.2
2022-12-12T01:55:00+09:00,3,�k�k��,6.9,�k�k��,6,74.9,0,0,0,4,0,0,1007.8,1022.2
2022-12-12T01:56:00+09:00,3.1,�k�k��,6.9,�k�k��,6,75.3,0,0,0,4,0,0,1007.9,1022.3
2022-12-12T01:57:00+09:00,3.1,�k�k��,5.5,�k��,6,75.2,0,0,0,4,0,0,1007.9,1022.3
2022-12-12T01:58:00+09:00,3.2,�k�k��,5.5,�k��,6.1,75.3,0,0,0,4,0,0,1007.9,1022.3
2022-12-12T01:59:00+09:00,3.2,�k�k��,5.5,�k��,6.1,75.1,0,0,0,4,0,0,1007.9,1022.3
2022-12-12T02:00:00+09:00,3.2,�k�k��,5.5,�k��,5.9,74.6,0,0,0,4,0,0,1007.9,1022.3
2022-12-12T02:01:00+09:00,3.3,�k�k��,5.5,�k��,5.9,74.5,0,0,0,4,0,0,1007.8,1022.2
2022-12-12T02:02:00+09:00,3.4,�k�k��,5.6,�k�k��,5.9,75.2,0,0,0,4,0,0,1007.9,1022.3
2022-12-12T02:03:00+09:00,3.6,�k�k��,5.9,�k�k��,5.9,75.2,0,0,0,4,0,0,1007.9,1022.3
2022-12-12T02:04:00+09:00,3.6,�k�k��,5.9,�k�k��,6,75.4,0,0,0,4,0,0,1008,1022.4
2022-12-12T02:05:00+09:00,3.6,�k�k��,5.9,�k�k��,6.1,75.5,0,0,0,4,0,0,1007.9,1022.3
2022-12-12T02:06:00+09:00,3.6,�k�k��,5.9,�k�k��,6.2,75.1,0,0,0,4,0,0,1007.9,1022.3
2022-12-12T02:07:00+09:00,3.4,�k�k��,5.9,�k�k��,6.2,75,0,0,0,4,0,0,1007.9,1022.3
2022-12-12T02:08:00+09:00,3.3,�k�k��,5.9,�k�k��,6,74.3,0,0,0,4,0,0,1008,1022.4
2022-12-12T02:09:00+09:00,3.3,�k�k��,5.9,�k�k��,5.9,74.1,0,0,0,4,0,0,1008,1022.4
2022-12-12T02:10:00+09:00,3.2,�k,5.9,�k�k��,5.8,74.2,0,0,0,4,0,0,1008,1022.4
2022-12-12T02:11:00+09:00,3.3,�k,5.9,�k�k��,5.9,74.9,0,0,0,4,0,0,1008,1022.4
2022-12-12T02:12:00+09:00,3.3,�k,5.9,�k�k��,5.9,75.4,0,0,0,4,0,0,1008,1022.4
2022-12-12T02:13:00+09:00,3.2,�k,5.8,�k�k��,5.8,75.2,0,0,0,4,0,0,1008,1022.4
2022-12-12T02:14:00+09:00,3.2,�k,5.8,�k�k��,5.7,75.1,0,0,0,4,0,0,1008,1022.4
2022-12-12T02:15:00+09:00,3.1,�k,5.8,�k�k��,5.8,75.7,0,0,0,4,0,0,1008,1022.4
2022-12-12T02:16:00+09:00,2.8,�k,5.7,�k,5.8,75.8,0,0,0,4,0,0,1008.1,1022.5
2022-12-12T02:17:00+09:00,2.8,�k,5.7,�k,5.8,75.6,0,0,0,4,0,0,1008,1022.4
2022-12-12T02:18:00+09:00,2.7,�k,5.7,�k,5.7,75.4,0,0,0,4,0,0,1008,1022.4
2022-12-12T02:19:00+09:00,2.7,�k,5.7,�k,5.8,76.1,0,0,0,4,0,0,1008,1022.4
2022-12-12T02:20:00+09:00,2.7,�k,5.7,�k,5.7,75.8,0,0,0,4,0,0,1008,1022.4
2022-12-12T02:21:00+09:00,2.7,�k,5.6,�k,5.9,76.2,0,0,0,4,0,0,1008,1022.4
2022-12-12T02:22:00+09:00,2.8,�k,5.7,�k�k��,6.1,76.6,0,0,0,4,0,0,1008,1022.4
2022-12-12T02:23:00+09:00,2.8,�k,5.7,�k�k��,6.2,76.2,0,0,0,4,0,0,1008,1022.4
2022-12-12T02:24:00+09:00,2.8,�k,5.7,�k�k��,6,75.3,0,0,0,4,0,0,1008,1022.4
2022-12-12T02:25:00+09:00,2.9,�k,5.7,�k�k��,6,75.2,0,0,0,4,0,0,1008.1,1022.5
2022-12-12T02:26:00+09:00,2.9,�k,5.7,�k�k��,5.9,74.9,0,0,0,4,0,0,1008.1,1022.5
2022-12-12T02:27:00+09:00,2.9,�k,5.7,�k�k��,5.8,74.5,0,0,0,4,0,0,1008.1,1022.5
2022-12-12T02:28:00+09:00,2.9,�k,5.7,�k�k��,5.8,74.7,0,0,0,4,0,0,1008.1,1022.5
2022-12-12T02:29:00+09:00,2.9,�k,5.7,�k�k��,5.7,75.1,0,0,0,4,0,0,1008,1022.4
2022-12-12T02:30:00+09:00,2.7,�k,5.7,�k�k��,5.7,75.3,0,0,0,4,0,0,1008.1,1022.5
2022-12-12T02:31:00+09:00,2.6,�k,5.7,�k�k��,5.7,75.6,0,0,0,4,0,0,1008.1,1022.5
2022-12-12T02:32:00+09:00,2.4,�k,5.2,�k�k��,5.7,75.5,0,0,0,4,0,0,1008.1,1022.5
2022-12-12T02:33:00+09:00,2.5,�k,5.2,�k�k��,5.8,75.8,0,0,0,4,0,0,1008.1,1022.5
2022-12-12T02:34:00+09:00,2.3,�k,5.2,�k�k��,5.8,75.7,0,0,0,4,0,0,1008.1,1022.5
2022-12-12T02:35:00+09:00,2.1,�k,4.6,�k�k��,5.8,75.3,0,0,0,4,0,0,1008,1022.4
2022-12-12T02:36:00+09:00,2.2,�k�k��,4.6,�k�k��,5.7,75.1,0,0,0,4,0,0,1008,1022.4
2022-12-12T02:37:00+09:00,2.3,�k�k��,4.6,�k�k��,5.8,75.4,0,0,0,4,0,0,1008,1022.4
2022-12-12T02:38:00+09:00,2.3,�k�k��,4.6,�k�k��,5.8,75.3,0,0,0,4,0,0,1008.1,1022.5
2022-12-12T02:39:00+09:00,2.3,�k�k��,4.6,�k�k��,5.8,75.2,0,0,0,4,0,0,1008,1022.4
2022-12-12T02:40:00+09:00,2.3,�k�k��,4.6,�k�k��,5.9,74.9,0,0,0,4,0,0,1008,1022.4
2022-12-12T02:41:00+09:00,2.3,�k�k��,4.6,�k�k��,5.9,74.8,0,0,0,4,0,0,1008,1022.4
2022-12-12T02:42:00+09:00,2.3,�k�k��,4.5,�k,5.9,74.5,0,0,0,4,0,0,1008,1022.4
2022-12-12T02:43:00+09:00,2.2,�k�k��,4.3,�k,5.9,74.4,0,0,0,4,0,0,1008,1022.4
2022-12-12T02:44:00+09:00,2.3,�k�k��,4.9,�k,5.9,74.4,0,0,0,4,0,0,1008.1,1022.5
2022-12-12T02:45:00+09:00,2.3,�k�k��,4.9,�k,6,74.2,0,0,0,4,0,0,1008.1,1022.5
2022-12-12T02:46:00+09:00,2.3,�k�k��,4.9,�k,6,74.1,0,0,0,4,0,0,1008,1022.4
2022-12-12T02:47:00+09:00,2.2,�k,4.9,�k,6,73.8,0,0,0,4,0,0,1008,1022.4
2022-12-12T02:48:00+09:00,2.2,�k,4.9,�k,6,73.8,0,0,0,4,0,0,1008,1022.4
2022-12-12T02:49:00+09:00,2.2,�k,4.9,�k,6,73.6,0,0,0,4,0,0,1008,1022.4
2022-12-12T02:50:00+09:00,2.1,�k,4.9,�k,5.9,73.5,0,0,0,4,0,0,1008,1022.4
2022-12-12T02:51:00+09:00,2,�k�k��,4.9,�k,5.9,73.4,0,0,0,4,0,0,1008,1022.4
2022-12-12T02:52:00+09:00,1.9,�k�k��,4.9,�k,5.8,73.2,0,0,0,4,0,0,1008,1022.4
2022-12-12T02:53:00+09:00,1.8,�k�k��,4.9,�k,5.7,73.2,0,0,0,4,0,0,1008,1022.4
2022-12-12T02:54:00+09:00,1.6,�k�k��,4.9,�k�k��,5.6,73.7,0,0,0,4,0,0,1008,1022.4
2022-12-12T02:55:00+09:00,1.6,�k�k��,3.6,�k,5.5,74.1,0,0,0,4,0,0,1008,1022.4
2022-12-12T02:56:00+09:00,1.5,�k�k��,3.5,�k,5.5,74.9,0,0,0,4,0,0,1008.1,1022.5
2022-12-12T02:57:00+09:00,1.4,�k,3.5,�k,5.5,75.4,0,0,0,4,0,0,1008,1022.4
2022-12-12T02:58:00+09:00,1.4,�k,3.5,�k,5.4,76.1,0,0,0,4,0,0,1008,1022.4
2022-12-12T02:59:00+09:00,1.4,�k,3.5,�k,5.2,75.9,0,0,0,4,0,0,1008,1022.4
2022-12-12T03:00:00+09:00,1.4,�k,3.5,�k,5,76,0,0,0,4,0,0,1008,1022.4
2022-12-12T03:01:00+09:00,1.4,�k�k��,3.5,�k,5,76.9,0,0,0,4,0,0,1008,1022.4
2022-12-12T03:02:00+09:00,1.5,�k�k��,3.5,�k,5,77.9,0,0,0,4,0,0,1007.9,1022.3
2022-12-12T03:03:00+09:00,1.5,�k�k��,3.5,�k,5,78.5,0,0,0,4,0,0,1007.9,1022.3
2022-12-12T03:04:00+09:00,1.6,�k�k��,3.5,�k,5,79.1,0,0,0,4,0,0,1007.9,1022.3
2022-12-12T03:05:00+09:00,1.5,�k�k��,2.8,�k�k��,4.8,78.9,0,0,0,4,0,0,1007.9,1022.3
2022-12-12T03:06:00+09:00,1.6,�k�k��,2.8,�k�k��,4.8,79.3,0,0,0,4,0,0,1007.9,1022.3
2022-12-12T03:07:00+09:00,1.5,�k�k��,2.8,�k�k��,4.9,79.5,0,0,0,4,0,0,1007.9,1022.3
2022-12-12T03:08:00+09:00,1.4,�k�k��,2.8,�k�k��,4.8,79.9,0,0,0,4,0,0,1007.8,1022.2
2022-12-12T03:09:00+09:00,1.4,�k�k��,3,�k,4.8,80,0,0,0,4,0,0,1007.9,1022.3
2022-12-12T03:10:00+09:00,1.4,�k�k��,3,�k,4.7,80.2,0,0,0,4,0,0,1007.9,1022.3
2022-12-12T03:11:00+09:00,1.4,�k�k��,3,�k,4.7,80.5,0,0,0,4,0,0,1007.9,1022.3
2022-12-12T03:12:00+09:00,1.3,�k�k��,3,�k,4.8,80.8,0,0,0,4,0,0,1007.9,1022.3
2022-12-12T03:13:00+09:00,1.2,�k�k��,3,�k,4.8,81.4,0,0,0,4,0,0,1007.9,1022.3
2022-12-12T03:14:00+09:00,1.2,�k�k��,3,�k,4.6,80.7,0,0,0,4,0,0,1007.9,1022.4
2022-12-12T03:15:00+09:00,1.3,�k�k��,3.1,�k��,4.6,80.7,0,0,0,4,0,0,1007.8,1022.3
2022-12-12T03:16:00+09:00,1.5,�k�k��,3.5,�k��,4.6,81.3,0,0,0,4,0,0,1007.9,1022.4
2022-12-12T03:17:00+09:00,1.6,�k�k��,3.5,�k��,4.6,81.3,0,0,0,4,0,0,1007.9,1022.4
2022-12-12T03:18:00+09:00,1.8,�k�k��,3.5,�k��,4.5,81.8,0,0,0,4,0,0,1007.9,1022.4
2022-12-12T03:19:00+09:00,1.9,�k�k��,3.5,�k��,4.7,82.4,0,0,0,4,0,0,1007.8,1022.2
2022-12-12T03:20:00+09:00,2,�k�k��,3.6,�k��,4.6,82.6,0,0,0,4,0,0,1007.8,1022.3
2022-12-12T03:21:00+09:00,2,�k�k��,3.6,�k��,4.6,82.2,0,0,0,4,0,0,1007.9,1022.4
2022-12-12T03:22:00+09:00,2.1,�k�k��,3.6,�k��,4.6,82.1,0,0,0,4,0,0,1007.9,1022.4
2022-12-12T03:23:00+09:00,2.2,�k�k��,3.6,�k��,4.7,82.4,0,0,0,4,0,0,1007.9,1022.3
2022-12-12T03:24:00+09:00,2.3,�k��,3.6,�k��,4.8,82.4,0,0,0,4,0,0,1007.8,1022.2
2022-12-12T03:25:00+09:00,2.3,�k��,3.6,�k��,4.8,82.2,0,0,0,4,0,0,1007.8,1022.2
2022-12-12T03:26:00+09:00,2.3,�k��,3.6,�k��,4.6,81.5,0,0,0,4,0,0,1007.8,1022.3
2022-12-12T03:27:00+09:00,2.2,�k�k��,3.6,�k��,4.6,81.4,0,0,0,4,0,0,1007.8,1022.3
2022-12-12T03:28:00+09:00,2.1,�k�k��,3.6,�k��,4.5,81.3,0,0,0,4,0,0,1007.8,1022.3
2022-12-12T03:29:00+09:00,1.9,�k�k��,3.6,�k��,4.5,81.9,0,0,0,4,0,0,1007.8,1022.3
2022-12-12T03:30:00+09:00,1.9,�k�k��,3.6,���k��,4.5,82,0,0,0,4,0,0,1007.8,1022.3
2022-12-12T03:31:00+09:00,1.9,�k�k��,3.3,�k�k��,4.5,82.5,0,0,0,4,0,0,1007.8,1022.3
2022-12-12T03:32:00+09:00,1.9,�k�k��,3.3,�k�k��,4.5,82.4,0,0,0,4,0,0,1007.8,1022.3
2022-12-12T03:33:00+09:00,1.9,�k�k��,3.6,�k�k��,4.4,82.4,0,0,0,4,0,0,1007.7,1022.2
2022-12-12T03:34:00+09:00,2,�k�k��,3.6,�k�k��,4.4,82.7,0,0,0,4,0,0,1007.7,1022.2
2022-12-12T03:35:00+09:00,2,�k�k��,3.6,�k�k��,4.4,82.9,0,0,0,4,0,0,1007.7,1022.2
2022-12-12T03:36:00+09:00,1.9,�k�k��,3.6,�k�k��,4.4,83.1,0,0,0,4,0,0,1007.7,1022.2
2022-12-12T03:37:00+09:00,1.8,�k�k��,3.6,�k�k��,4.3,83.2,0,0,0,4,0,0,1007.7,1022.2
2022-12-12T03:38:00+09:00,1.7,�k�k��,3.6,�k�k��,4.2,83,0,0,0,4,0,0,1007.7,1022.2
2022-12-12T03:39:00+09:00,1.7,�k,3.6,�k�k��,4,83,0,0,0,4,0,0,1007.8,1022.3
2022-12-12T03:40:00+09:00,1.7,�k,3.6,�k�k��,4.1,83.3,0,0,0,4,0,0,1007.7,1022.2
2022-12-12T03:41:00+09:00,1.7,�k,3.6,�k�k��,4.1,83.9,0,0,0,4,0,0,1007.7,1022.2
2022-12-12T03:42:00+09:00,1.7,�k,3.6,�k�k��,4.1,84.2,0,0,0,4,0,0,1007.7,1022.2
2022-12-12T03:43:00+09:00,1.5,�k,3.4,�k�k��,4.2,84.9,0,0,0,4,0,0,1007.7,1022.2
2022-12-12T03:44:00+09:00,1.4,�k,3.2,�k,4.2,85,0,0,0,4,0,0,1007.7,1022.2
2022-12-12T03:45:00+09:00,1.4,�k,2.9,�k�k��,4.1,84.8,0,0,0,4,0,0,1007.7,1022.2
2022-12-12T03:46:00+09:00,1.4,�k,3.4,�k�k��,4.1,84.6,0,0,0,4,0,0,1007.7,1022.2
2022-12-12T03:47:00+09:00,1.5,�k,3.7,�k�k��,4.1,84.9,0,0,0,4,0,0,1007.7,1022.2
2022-12-12T03:48:00+09:00,1.6,�k,3.7,�k�k��,4.1,85,0,0,0,4,0,0,1007.7,1022.2
2022-12-12T03:49:00+09:00,1.8,�k�k��,3.7,�k�k��,4.3,85.6,0,0,0,4,0,0,1007.7,1022.2
2022-12-12T03:50:00+09:00,1.9,�k�k��,3.7,�k�k��,4.1,85.2,0,0,0,4,0,0,1007.7,1022.2
2022-12-12T03:51:00+09:00,1.9,�k�k��,3.7,�k�k��,4.1,84.7,0,0,0,4,0,0,1007.7,1022.2
2022-12-12T03:52:00+09:00,2,�k�k��,3.7,�k�k��,3.9,84.5,0,0,0,4,0,0,1007.7,1022.2
2022-12-12T03:53:00+09:00,2.1,�k�k��,3.7,�k�k��,4.1,85.2,0,0,0,4,0,0,1007.6,1022.1
2022-12-12T03:54:00+09:00,2.2,�k�k��,3.7,�k�k��,3.9,85.1,0,0,0,4,0,0,1007.6,1022.1
2022-12-12T03:55:00+09:00,2.2,�k�k��,3.7,�k�k��,4.2,85.9,0,0,0,4,0,0,1007.6,1022.1
2022-12-12T03:56:00+09:00,2.3,�k�k��,3.7,�k�k��,4.1,85.8,0,0,0,4,0,0,1007.6,1022.1
2022-12-12T03:57:00+09:00,2.3,�k�k��,3.6,�k�k��,4,85.4,0,0,0,4,0,0,1007.7,1022.2
2022-12-12T03:58:00+09:00,2.4,�k�k��,4.4,�k�k��,4,85.3,0,0,0,4,0,0,1007.6,1022.1
2022-12-12T03:59:00+09:00,2.4,�k�k��,4.4,�k�k��,3.9,85.3,0,0,0,4,0,0,1007.5,1022
2022-12-12T04:00:00+09:00,2.4,�k�k��,4.4,�k�k��,3.9,85.6,0,0,0,4,0,0,1007.4,1021.9
2022-12-12T04:01:00+09:00,2.6,�k�k��,4.9,�k�k��,3.9,85.7,0,0,0,4,0,0,1007.5,1022
2022-12-12T04:02:00+09:00,2.8,�k�k��,5.3,�k�k��,3.9,85.7,0,0,0,4,0,0,1007.5,1022
2022-12-12T04:03:00+09:00,2.9,�k�k��,5.3,�k�k��,4,86.1,0,0,0,4,0,0,1007.5,1022
2022-12-12T04:04:00+09:00,2.9,�k�k��,5.3,�k�k��,4,86.3,0,0,0,4,0,0,1007.5,1022
2022-12-12T04:05:00+09:00,2.9,�k�k��,5.3,�k�k��,3.8,85.7,0,0,0,4,0,0,1007.5,1022
2022-12-12T04:06:00+09:00,2.8,�k�k��,5.3,�k�k��,3.8,85.5,0,0,0,4,0,0,1007.5,1022
2022-12-12T04:07:00+09:00,2.8,�k�k��,5.3,�k�k��,3.8,85.9,0,0,0,4,0,0,1007.5,1022
2022-12-12T04:08:00+09:00,2.6,�k,5.3,�k�k��,3.7,85.9,0,0,0,4,0,0,1007.5,1022
2022-12-12T04:09:00+09:00,2.6,�k,5.3,�k�k��,3.7,86,0,0,0,4,0,0,1007.4,1021.9
2022-12-12T04:10:00+09:00,2.5,�k,5.3,�k�k��,3.6,86.1,0,0,0,4,0,0,1007.4,1021.9
2022-12-12T04:11:00+09:00,2.3,�k,5.3,�k�k��,3.6,86.3,0,0,0,4,0,0,1007.3,1021.8
2022-12-12T04:12:00+09:00,2,�k,4.7,�k,3.6,86.5,0,0,0,4,0,0,1007.3,1021.8
2022-12-12T04:13:00+09:00,1.8,�k,3.7,�k,3.5,86.3,0,0,0,4,0,0,1007.3,1021.8
2022-12-12T04:14:00+09:00,1.7,�k,3.6,�k,3.6,86.7,0,0,0,4,0,0,1007.3,1021.8
2022-12-12T04:15:00+09:00,1.7,�k,3.6,�k,3.7,87,0,0,0,4,0,0,1007.4,1021.9
2022-12-12T04:16:00+09:00,1.7,�k,3.6,�k,3.7,86.9,0,0,0,4,0,0,1007.3,1021.8
2022-12-12T04:17:00+09:00,1.6,�k,3.6,�k,3.7,87.1,0,0,0,4,0,0,1007.3,1021.8
2022-12-12T04:18:00+09:00,1.5,�k,3.6,�k,3.8,87.1,0,0,0,4,0,0,1007.3,1021.8
2022-12-12T04:19:00+09:00,1.4,�k,3.6,�k,3.7,86.6,0,0,0,4,0,0,1007.3,1021.8
2022-12-12T04:20:00+09:00,1.4,�k,3.2,�k��,3.6,86.2,0,0,0,4,0,0,1007.3,1021.8
2022-12-12T04:21:00+09:00,1.5,�k,3.2,�k��,3.5,85.8,0,0,0,4,0,0,1007.3,1021.8
2022-12-12T04:22:00+09:00,1.6,�k�k��,3.1,�k��,3.6,86,0,0,0,4,0,0,1007.3,1021.8
2022-12-12T04:23:00+09:00,1.6,�k�k��,3.1,�k��,3.6,86.4,0,0,0,4,0,0,1007.4,1021.9
2022-12-12T04:24:00+09:00,1.7,�k�k��,3.3,�k��,3.7,86.7,0,0,0,4,0,0,1007.5,1022
2022-12-12T04:25:00+09:00,1.8,�k�k��,3.3,�k��,3.7,86.8,0,0,0,4,0,0,1007.6,1022.1
2022-12-12T04:26:00+09:00,1.7,�k�k��,3.3,�k��,3.6,86.7,0,0,0,4,0,0,1007.6,1022.1
2022-12-12T04:27:00+09:00,1.7,�k�k��,3.3,�k��,3.6,86.7,0,0,0,4,0,0,1007.5,1022
2022-12-12T04:28:00+09:00,1.7,�k�k��,3.4,�k��,3.5,86.6,0,0,0,4,0,0,1007.5,1022
2022-12-12T04:29:00+09:00,1.8,�k�k��,3.8,�k��,3.5,86.6,0,0,0,4,0,0,1007.5,1022
2022-12-12T04:30:00+09:00,1.8,�k�k��,3.8,�k��,3.6,86.7,0,0,0,4,0,0,1007.5,1022
2022-12-12T04:31:00+09:00,1.7,�k�k��,3.8,�k��,4,87.9,0,0,0,4,0,0,1007.6,1022.1
2022-12-12T04:32:00+09:00,1.6,�k,3.8,�k��,4,87.7,0,0,0,4,0,0,1007.6,1022.1
2022-12-12T04:33:00+09:00,1.5,�k,3.8,�k��,4,86.9,0,0,0,4,0,0,1007.6,1022.1
2022-12-12T04:34:00+09:00,1.5,�k,3.8,�k��,4.1,86,0,0,0,4,0,0,1007.6,1022.1
2022-12-12T04:35:00+09:00,1.6,�k,3.8,�k��,4.2,85.5,0,0,0,4,0,0,1007.6,1022.1
2022-12-12T04:36:00+09:00,1.6,�k�k��,3.8,�k��,4.1,84.7,0,0,0,4,0,0,1007.7,1022.2
2022-12-12T04:37:00+09:00,1.8,�k�k��,3.8,�k��,4.1,84.2,0,0,0,4,0,0,1007.7,1022.2
2022-12-12T04:38:00+09:00,2,�k�k��,3.8,�k��,4.1,83.6,0,0,0,4,0,0,1007.7,1022.2
2022-12-12T04:39:00+09:00,2.1,�k�k��,4,�k�k��,4.1,83.6,0,0,0,4,0,0,1007.6,1022.1
2022-12-12T04:40:00+09:00,2.2,�k�k��,4,�k�k��,4.1,83.4,0,0,0,4,0,0,1007.7,1022.2
2022-12-12T04:41:00+09:00,2.3,�k�k��,4,�k�k��,4.2,83.3,0,0,0,4,0,0,1007.7,1022.2
2022-12-12T04:42:00+09:00,2.4,�k�k��,4.1,�k,4.2,83.3,0,0,0,4,0,0,1007.8,1022.3
2022-12-12T04:43:00+09:00,2.5,�k�k��,4.1,�k,4.1,82.8,0,0,0,4,0,0,1007.7,1022.2
2022-12-12T04:44:00+09:00,2.5,�k�k��,4.1,�k,4,82.5,0,0,0,4,0,0,1007.7,1022.2
2022-12-12T04:45:00+09:00,2.5,�k�k��,4.1,�k,4,82.8,0,0,0,4,0,0,1007.7,1022.2
2022-12-12T04:46:00+09:00,2.5,�k�k��,4.1,�k,3.8,82.7,0,0,0,4,0,0,1007.6,1022.1
2022-12-12T04:47:00+09:00,2.5,�k�k��,4.1,�k,3.8,82.8,0,0,0,4,0,0,1007.5,1022
2022-12-12T04:48:00+09:00,2.5,�k�k��,4.1,�k,3.7,83,0,0,0,4,0,0,1007.6,1022.1
2022-12-12T04:49:00+09:00,2.3,�k�k��,4.1,�k,3.7,83.8,0,0,0,4,0,0,1007.6,1022.1
2022-12-12T04:50:00+09:00,2.2,�k�k��,4.1,�k,3.7,84,0,0,0,4,0,0,1007.5,1022
2022-12-12T04:51:00+09:00,2.2,�k�k��,4.1,�k,3.6,84.1,0,0,0,4,0,0,1007.5,1022
2022-12-12T04:52:00+09:00,2.2,�k�k��,3.7,�k�k��,3.6,84.6,0,0,0,4,0,0,1007.4,1021.9
2022-12-12T04:53:00+09:00,2.3,�k�k��,3.7,�k�k��,3.6,85.2,0,0,0,4,0,0,1007.5,1022
2022-12-12T04:54:00+09:00,2.4,�k�k��,3.7,�k�k��,3.6,85.4,0,0,0,4,0,0,1007.4,1021.9
2022-12-12T04:55:00+09:00,2.4,�k�k��,3.7,�k�k��,3.6,86,0,0,0,4,0,0,1007.4,1021.9
2022-12-12T04:56:00+09:00,2.4,�k�k��,3.7,�k�k��,3.6,85.7,0,0,0,4,0,0,1007.4,1021.9
2022-12-12T04:57:00+09:00,2.3,�k�k��,3.8,�k,3.6,85.8,0,0,0,4,0,0,1007.3,1021.8
2022-12-12T04:58:00+09:00,2.3,�k�k��,3.8,�k,3.5,85.9,0,0,0,4,0,0,1007.2,1021.7
2022-12-12T04:59:00+09:00,2.3,�k�k��,3.8,�k,3.6,86.3,0,0,0,4,0,0,1007.2,1021.7
2022-12-12T05:00:00+09:00,2.3,�k�k��,3.8,�k,3.5,86,0,0,0,4,0,0,1007.3,1021.8
2022-12-12T05:01:00+09:00,2.2,�k�k��,3.8,�k,3.8,86.7,0,0,0,4,0,0,1007.3,1021.8
2022-12-12T05:02:00+09:00,2,�k,3.8,�k,3.6,86.6,0,0,0,4,0,0,1007.2,1021.7
2022-12-12T05:03:00+09:00,1.8,�k,3.8,�k,3.6,86.1,0,0,0,4,0,0,1007.2,1021.7